Location: Franzen
(48.6167°N, 15.3833°E)
Time: 07:06:36
(UTC+00:00)

ARIANE 5 R/B - Visible Passes

Search period start: 29 July 2021 00:00
Search period end: 08 August 2021 00:00
Orbit: 620 x 656 km, 98.1° (Epoch: 16 July)

Date Brightness Start Highest point End Pass type
(mag) Time Alt. Az. Time Alt. Az. Time Alt. Az.
29 Jul 2.7 20:26:52 19° S 20:30:06 79° WSW 20:34:34 10° NNW visible
30 Jul 4.1 19:13:21 10° ESE 19:16:50 23° ENE 19:20:18 10° NNE visible
30 Jul 3.4 20:50:04 19° SSW 20:53:01 47° W 20:57:20 10° NNW visible
31 Jul 3.5 19:35:44 11° SE 19:39:33 35° ENE 19:43:34 10° N visible
31 Jul 4.2 21:13:17 16° SW 21:16:01 29° W 21:19:54 10° NW visible
01 Aug 2.9 19:58:57 17° SE 20:02:18 56° ENE 20:06:40 10° N visible
01 Aug 4.9 21:36:30 12° SW 21:39:06 18° W 21:42:09 10° NW visible
02 Aug 2.6 20:22:10 21° SSE 20:25:09 88° WSW 20:29:37 10° NNW visible
02 Aug 5.3 22:01:12 10° W 22:02:15 11° W 22:03:19 10° WNW visible
03 Aug 4.2 19:08:40 10° ESE 19:11:57 21° ENE 19:15:12 10° NNE visible
03 Aug 3.2 20:45:23 22° S 20:48:04 53° W 20:52:24 10° NNW visible
04 Aug 3.7 19:31:03 12° SE 19:34:38 31° ENE 19:38:32 10° N visible
04 Aug 4.0 21:08:36 19° SSW 21:11:03 32° W 21:15:02 10° NNW visible
05 Aug 3.0 19:54:17 18° SE 19:57:23 50° ENE 20:01:40 10° N visible
05 Aug 4.7 21:31:50 14° SW 21:34:06 20° W 21:37:22 10° NW visible
06 Aug 2.6 20:17:30 23° SSE 20:20:12 83° ENE 20:24:38 10° NNW visible
06 Aug 5.2 21:55:29 10° WSW 21:57:14 12° W 21:59:00 10° WNW visible
07 Aug 4.4 19:04:01 10° ESE 19:07:03 18° ENE 19:10:05 10° NNE visible
07 Aug 3.0 20:40:44 26° S 20:43:06 60° WSW 20:47:28 10° NNW visible
